Météo par heure à Allaguvat

Ce jour, 15 Mai, Samedi

Heure Température Précipitation Vent Pression Humidité
00:00 +18°C° 0 mm 2 m/s 754 mmHg 50%
01:00 +18°C° 0 mm 2 m/s 754 mmHg 51%
02:00 +17°C° 0 mm 2 m/s 754 mmHg 53%
03:00 +17°C° 0 mm 2 m/s 754 mmHg 54%
04:00 +17°C° 0 mm 2 m/s 754 mmHg 56%
05:00 +18°C° 0 mm 2 m/s 754 mmHg 56%
06:00 +19°C° 0 mm 2 m/s 754 mmHg 57%
07:00 +20°C° 0 mm 2 m/s 754 mmHg 58%
08:00 +23°C° 0 mm 2 m/s 754 mmHg 52%
09:00 +25°C° 0 mm 3 m/s 754 mmHg 46%
10:00 +27°C° 0 mm 3 m/s 754 mmHg 40%
11:00 +28°C° 0 mm 3 m/s 754 mmHg 36%
12:00 +30°C° 0 mm 3 m/s 754 mmHg 33%
13:00 +31°C° 0 mm 3 m/s 754 mmHg 29%
14:00 +31°C° 0 mm 3 m/s 754 mmHg 29%
15:00 +31°C° 0 mm 3 m/s 753 mmHg 29%
16:00 +31°C° 0 mm 2 m/s 753 mmHg 29%
17:00 +29°C° 0 mm 2 m/s 753 mmHg 35%
18:00 +28°C° 0 mm 2 m/s 753 mmHg 41%
19:00 +26°C° 0 mm 2 m/s 753 mmHg 47%
20:00 +25°C° 0 mm 2 m/s 753 mmHg 48%
21:00 +23°C° 0 mm 2 m/s 753 mmHg 48%
22:00 +21°C° 0 mm 2 m/s 753 mmHg 49%
23:00 +20°C° 0 mm 2 m/s 753 mmHg 49%

Demain, 16 Mai, Dimanche

Heure Température Précipitation Vent Pression Humidité
00:00 +19°C° 0 mm 2 m/s 753 mmHg 50%
01:00 +19°C° 0 mm 2 m/s 752 mmHg 51%
02:00 +18°C° 0 mm 2 m/s 753 mmHg 53%
03:00 +18°C° 0 mm 2 m/s 753 mmHg 55%
04:00 +17°C° 0 mm 2 m/s 753 mmHg 56%
05:00 +19°C° 0 mm 2 m/s 753 mmHg 56%
06:00 +20°C° 0 mm 2 m/s 753 mmHg 56%
07:00 +21°C° 0 mm 2 m/s 753 mmHg 56%
08:00 +24°C° 0 mm 2 m/s 753 mmHg 51%
09:00 +26°C° 0 mm 3 m/s 753 mmHg 46%
10:00 +28°C° 0 mm 3 m/s 753 mmHg 40%
11:00 +29°C° 0 mm 3 m/s 753 mmHg 37%
12:00 +30°C° 0 mm 3 m/s 753 mmHg 33%
13:00 +31°C° 0 mm 2 m/s 753 mmHg 29%
14:00 +31°C° 0 mm 2 m/s 752 mmHg 29%
15:00 +31°C° 0 mm 2 m/s 752 mmHg 28%
16:00 +31°C° 0 mm 2 m/s 752 mmHg 27%
17:00 +30°C° 0 mm 2 m/s 752 mmHg 34%
18:00 +28°C° 0 mm 2 m/s 751 mmHg 40%
19:00 +27°C° 0 mm 2 m/s 751 mmHg 46%
20:00 +26°C° 0 mm 2 m/s 751 mmHg 46%
21:00 +24°C° 0 mm 2 m/s 751 mmHg 46%
22:00 +23°C° 0 mm 2 m/s 751 mmHg 45%
23:00 +23°C° 0 mm 2 m/s 751 mmHg 47%

Après-demain, 17 Mai, Lundi

Heure Température Précipitation Vent Pression Humidité
00:00 +21°C° 0 mm 2 m/s 752 mmHg 49%
01:00 +20°C° 0 mm 2 m/s 752 mmHg 50%
02:00 +20°C° 0 mm 2 m/s 752 mmHg 53%
03:00 +19°C° 0 mm 2 m/s 752 mmHg 55%
04:00 +19°C° 0 mm 2 m/s 752 mmHg 57%
05:00 +20°C° 0 mm 2 m/s 752 mmHg 57%
06:00 +21°C° 0 mm 2 m/s 752 mmHg 57%
07:00 +23°C° 0 mm 2 m/s 752 mmHg 57%
08:00 +25°C° 0 mm 2 m/s 752 mmHg 52%
09:00 +27°C° 0 mm 3 m/s 752 mmHg 47%
10:00 +28°C° 0 mm 3 m/s 752 mmHg 42%
11:00 +29°C° 0 mm 3 m/s 752 mmHg 39%
12:00 +30°C° 0 mm 3 m/s 752 mmHg 36%
13:00 +31°C° 0 mm 3 m/s 752 mmHg 33%
14:00 +31°C° 0 mm 3 m/s 752 mmHg 32%
15:00 +31°C° 0 mm 3 m/s 751 mmHg 32%
16:00 +31°C° 0 mm 3 m/s 751 mmHg 31%
17:00 +30°C° 0 mm 2 m/s 751 mmHg 37%
18:00 +29°C° 0 mm 2 m/s 751 mmHg 42%
19:00 +27°C° 0 mm 1 m/s 750 mmHg 48%
20:00 +25°C° 0.1 mm 2 m/s 751 mmHg 50%
21:00 +24°C° 0.1 mm 2 m/s 751 mmHg 52%
22:00 +21°C° 0.1 mm 3 m/s 751 mmHg 54%
23:00 +20°C° 0.2 mm 2 m/s 751 mmHg 58%

18 Mai, Mardi

Heure Température Précipitation Vent Pression Humidité
00:00 +19°C° 0.2 mm 2 m/s 751 mmHg 63%
01:00 +20°C° 0.2 mm 1 m/s 751 mmHg 67%
02:00 +19°C° 0 mm 1 m/s 751 mmHg 68%
03:00 +19°C° 0 mm 1 m/s 751 mmHg 69%
04:00 +18°C° 0 mm 1 m/s 751 mmHg 70%
05:00 +20°C° 0 mm 1 m/s 751 mmHg 67%
06:00 +21°C° 0 mm 1 m/s 751 mmHg 63%
07:00 +22°C° 0 mm 1 m/s 751 mmHg 60%
08:00 +24°C° 0 mm 1 m/s 751 mmHg 55%
09:00 +26°C° 0 mm 1 m/s 751 mmHg 49%
10:00 +28°C° 0 mm 1 m/s 751 mmHg 43%
11:00 +29°C° 0 mm 1 m/s 750 mmHg 40%
12:00 +30°C° 0 mm 1 m/s 750 mmHg 37%
13:00 +31°C° 0 mm 1 m/s 750 mmHg 34%
14:00 +31°C° 0 mm 1 m/s 750 mmHg 33%
15:00 +31°C° 0 mm 1 m/s 750 mmHg 32%
16:00 +31°C° 0 mm 2 m/s 749 mmHg 31%
17:00 +29°C° 0 mm 2 m/s 749 mmHg 40%
18:00 +27°C° 0 mm 2 m/s 749 mmHg 49%
19:00 +25°C° 0 mm 3 m/s 749 mmHg 57%
20:00 +24°C° 0.1 mm 3 m/s 749 mmHg 60%
21:00 +21°C° 0.1 mm 2 m/s 749 mmHg 62%
22:00 +20°C° 0.1 mm 2 m/s 750 mmHg 65%
23:00 +19°C° 0 mm 2 m/s 749 mmHg 68%

19 Mai, Mercredi

Heure Température Précipitation Vent Pression Humidité
00:00 +18°C° 0 mm 2 m/s 749 mmHg 71%
01:00 +19°C° 0 mm 1 m/s 749 mmHg 74%
02:00 +19°C° 0 mm 1 m/s 749 mmHg 75%
03:00 +18°C° 0 mm 1 m/s 749 mmHg 76%
04:00 +18°C° 0 mm 1 m/s 749 mmHg 78%
05:00 +19°C° 0 mm 1 m/s 749 mmHg 74%
06:00 +21°C° 0 mm 1 m/s 750 mmHg 71%
07:00 +22°C° 0 mm 1 m/s 750 mmHg 68%
08:00 +24°C° 0 mm 1 m/s 750 mmHg 61%
09:00 +26°C° 0 mm 2 m/s 750 mmHg 54%
10:00 +28°C° 0 mm 2 m/s 750 mmHg 47%
11:00 +29°C° 0 mm 2 m/s 750 mmHg 43%
12:00 +30°C° 0 mm 3 m/s 750 mmHg 40%
13:00 +31°C° 0 mm 3 m/s 749 mmHg 36%
14:00 +30°C° 0 mm 3 m/s 749 mmHg 38%
15:00 +30°C° 0 mm 3 m/s 749 mmHg 40%
16:00 +29°C° 0 mm 3 m/s 749 mmHg 42%
17:00 +27°C° 0.1 mm 3 m/s 749 mmHg 49%
18:00 +26°C° 0.1 mm 2 m/s 749 mmHg 56%
19:00 +24°C° 0.1 mm 2 m/s 749 mmHg 63%
20:00 +22°C° 0.2 mm 3 m/s 749 mmHg 64%
21:00 +21°C° 0.2 mm 3 m/s 750 mmHg 64%
22:00 +20°C° 0.2 mm 3 m/s 750 mmHg 65%
23:00 +20°C° 0 mm 3 m/s 750 mmHg 62%

20 Mai, Jeudi

Heure Température Précipitation Vent Pression Humidité
00:00 +19°C° 0 mm 3 m/s 750 mmHg 60%
01:00 +19°C° 0 mm 3 m/s 750 mmHg 58%
02:00 +18°C° 0 mm 3 m/s 751 mmHg 57%
03:00 +18°C° 0 mm 4 m/s 751 mmHg 57%
04:00 +18°C° 0 mm 4 m/s 751 mmHg 56%
05:00 +18°C° 0 mm 4 m/s 751 mmHg 57%
06:00 +19°C° 0 mm 5 m/s 751 mmHg 59%
07:00 +20°C° 0 mm 6 m/s 751 mmHg 60%
08:00 +21°C° 0 mm 6 m/s 751 mmHg 57%
09:00 +22°C° 0 mm 7 m/s 751 mmHg 54%
10:00 +24°C° 0 mm 8 m/s 752 mmHg 51%
11:00 +26°C° 0 mm 8 m/s 752 mmHg 49%
12:00 +26°C° 0 mm 8 m/s 751 mmHg 48%
13:00 +27°C° 0 mm 8 m/s 751 mmHg 46%
14:00 +27°C° 0 mm 7 m/s 751 mmHg 47%
15:00 +28°C° 0 mm 7 m/s 751 mmHg 49%
16:00 +28°C° 0 mm 6 m/s 751 mmHg 50%
17:00 +27°C° 0 mm 6 m/s 751 mmHg 53%
18:00 +26°C° 0 mm 6 m/s 751 mmHg 57%
19:00 +25°C° 0 mm 5 m/s 751 mmHg 60%
20:00 +23°C° 0.1 mm 5 m/s 751 mmHg 60%
21:00 +22°C° 0.1 mm 5 m/s 751 mmHg 60%
22:00 +21°C° 0.1 mm 5 m/s 751 mmHg 60%
23:00 +20°C° 0.5 mm 4 m/s 751 mmHg 68%
Voir plus

Nous avons besoin de votre consentement

Meteoprog et ses fournisseurs de services peuvent stocker et accéder à des données personnelles telles que des cookies, des identifiants d'appareils ou d'autres technologies similaires sur votre appareil et traiter ces données pour personnaliser le contenu et les publicités, ainsi que pour fournir des fonctionnalités de médias sociaux et analyser le trafic.

  • Stocker et/ou accéder à des informations sur votre appareil

    Des cookies, des identifiants d'appareils ou d'autres informations peuvent être stockés ou accessibles sur votre appareil aux fins indiquées ci-dessus.

  • Annonces et contenus personnalisés, mesure des annonces et des contenus, connaissance de l'audience et développement de produits

    Les annonces et le contenu peuvent être personnalisés en fonction d'un profil. D'autres données peuvent être ajoutées pour mieux personnaliser les annonces et le contenu. Les performances des publicités et du contenu peuvent être mesurées. Il est possible d'obtenir des informations sur le public qui a vu les publicités et le contenu. Ces données peuvent être utilisées pour développer ou améliorer l'expérience de l'utilisateur, les systèmes et les logiciels.

En cliquant sur "J'accepte", vous autorisez l'utilisation de cookies, des identifiants d'appareils, des balises web ou d'autres technologies similaires. Vos paramètres peuvent être modifiés dans le navigateur de votre appareil.

Dans certains cas, des intérêts légitimes peuvent être invoqués plutôt qu'un consentement. Vous pouvez en savoir plus à ce sujet dans notre Politique de confidentialité et de cookies.